Home > Time Zones > World Clock > Weather > Serbia > Niš > Past weeks

Flag for Serbia Weather past 2 weeks in Niš, Serbia

Now
41 °F

Passing clouds.


Feels Like: 37 °F
Forecast: 26 / 42 °F
Wind: 6 mph from Southwest

Location: Nis Airport

Current Time: Feb 2, 2015 at 3:22:48 AM

Latest Report: Feb 2, 2015 at 3:00 AM


Visibility: N/A

Pressure: 29.39 "Hg

Humidity: 70%

Dew point: 32 °F

Location of NišLocation

Historic Weather in Niš — Graph

°F

Niš temperature yesterday

Maximum temperature yesterday: 54 °F (at 2:30 PM)
Minimum temperature yesterday: 39 °F (at 3:30 AM)
Average temperature yesterday: 45 °F

Past Weeks' High & Low Weather Summary

 TemperatureHumidityPressure
High63 °F (Jan 21, 2:30 PM)100% (Jan 19, 2:00 AM)30.21 "Hg (Jan 19, 2:00 AM)
Low32 °F (Jan 18, 3:00 AM)40% (Jan 31, 10:00 AM)28.97 "Hg (Jan 30, 8:30 PM)
Average42 °F83%29.79 "Hg
* Reported Jan 18 2:00 AM — Feb 2 2:00 AM, Niš, Weather by CustomWeather, © 2014

Note: Actual official high and low records may vary slightly from our data, if they occured in-between our weather recording intervals... More about our weather records

Advertising

Niš weather history for previous 24 hours

 ConditionsComfort  
Time TempWeatherWind HumidityBarometerVisibility
2:00 AM
Feb 2
41 °FPassing clouds.3 mph76%29.39 "HgN/A
1:30 AM43 °FClear.2 mph76%29.39 "Hg10 mi
1:00 AM43 °FClear.5 mph76%29.39 "Hg10 mi
12:30 AM43 °FPassing clouds.3 mph76%29.39 "HgN/A
12:00 AM41 °FPassing clouds.3 mph81%29.39 "HgN/A
11:30 PM
Feb 1
45 °FClear.1 mph71%29.39 "Hg10 mi
11:00 PM45 °FClear.2 mph71%29.36 "Hg10 mi
10:30 PM46 °FPassing clouds.2 mph66%29.36 "HgN/A
10:00 PM46 °FPassing clouds.7 mph66%29.36 "HgN/A
9:30 PM46 °FLight rain. Passing clouds.5 mph66%29.36 "HgN/A
9:00 PM46 °FPassing clouds.3 mph71%29.36 "HgN/A
8:30 PM46 °FPassing clouds.7 mph71%29.36 "HgN/A
8:00 PM46 °FPassing clouds.2 mph66%29.36 "HgN/A
7:30 PM46 °FPassing clouds.2 mph66%29.36 "HgN/A
7:00 PM46 °FPassing clouds.3 mph66%29.33 "HgN/A
6:30 PM45 °FPassing clouds.5 mph71%29.33 "HgN/A
6:00 PM46 °FPassing clouds.2 mph66%29.30 "HgN/A
5:30 PM46 °FPassing clouds.3 mph71%29.30 "HgN/A
5:00 PM48 °FPassing clouds.7 mph66%29.27 "HgN/A
4:30 PM50 °FScattered clouds.7 mph67%29.27 "HgN/A
4:00 PM54 °FScattered clouds.7 mph54%29.24 "HgN/A
3:30 PM54 °FPassing clouds.7 mph54%29.24 "HgN/A
3:00 PM54 °FScattered clouds.8 mph58%29.21 "HgN/A
2:30 PM54 °FBroken clouds.9 mph58%29.21 "HgN/A
2:00 PM52 °FBroken clouds.12 mph62%29.21 "HgN/A
1:30 PM52 °FBroken clouds.12 mph67%29.18 "HgN/A
1:00 PM50 °FPartly sunny.8 mph67%29.18 "HgN/A
12:30 PM48 °FBroken clouds.5 mph71%29.18 "HgN/A
12:00 PM45 °FBroken clouds.2 mph81%29.15 "HgN/A
11:30 AM45 °FBroken clouds.6 mph81%29.15 "HgN/A
11:00 AM43 °FScattered clouds.6 mph87%29.12 "HgN/A
10:30 AM43 °FPartly sunny.3 mph87%29.15 "HgN/A
10:00 AM43 °FLight rain. Partly sunny.3 mph81%29.12 "HgN/A
9:30 AM43 °FPartly sunny.5 mph81%29.12 "HgN/A
9:00 AM43 °FLight rain. Partly sunny.6 mph81%29.12 "HgN/A
8:30 AM41 °FPartly sunny.13 mph81%29.12 "HgN/A
8:00 AM41 °FMostly cloudy.10 mph81%29.12 "HgN/A
7:30 AM41 °FMostly cloudy.8 mph81%29.12 "HgN/A
7:00 AM41 °FLight rain. Cloudy.7 mph87%29.15 "HgN/A
6:30 AM41 °FLight rain. Overcast.7 mph87%29.15 "HgN/A
6:00 AM39 °FLight rain. Overcast.8 mph93%29.15 "HgN/A
5:30 AM39 °FLight rain. Overcast.7 mph93%29.15 "HgN/A
5:00 AM39 °FLight rain. Overcast.6 mph93%29.18 "HgN/A
4:30 AM39 °FLight rain. Overcast.7 mph87%29.18 "HgN/A
4:00 AM39 °FRain. Overcast.8 mph87%29.21 "HgN/A
3:30 AM39 °FRain. Overcast.6 mph93%29.21 "HgN/A
3:00 AM41 °FLight rain. Passing clouds.5 mph87%29.21 "HgN/A
Weather by CustomWeather, © 2014

See weather overviewHow to use our weather pages